Location: Wildcat Hills Observatory
(41.6350°N, 103.6812°W)
Time: 00:03:20
(UTC-07:00)

Cosmos 1076 Rocket - Pass Details

Date: 23 June 2018
Orbit: 590 x 613 km, 82.5° (Epoch: 19 December)

Event Time Altitude Azimuth Distance (km) Brightness Sun altitude
Exits shadow 23:32:54 30° 237° (WSW) 1,074 4.6 -22.1°
Maximum altitude 23:34:23 41° 282° (WNW) 868 4.5 -22.2°
Drops below altitude 10° 23:38:25 10° 353° (N) 1,927 7.2 -22.4°
Sets 23:40:44 0° 1° (N) 2,833 8.2 -22.6°
